Location: Poughquag
(41.6090°N, 73.6820°W)
Time: 05:47:08
(UTC-04:00)

ITUPSAT 1 - Pass Details

Date: 21 June 2024
Orbit: 695 x 705 km, 98.5° (Epoch: 24 July)

Event Time Altitude Azimuth Distance (km) Brightness Sun altitude
Rises 23:29:42 0° 8° (N) 3,107 ? -21.9°
Reaches altitude 10° 23:32:00 10° 4° (N) 2,184 ? -22.1°
Maximum altitude 23:36:40 55° 288° (WNW) 853 ? -22.4°
Enters shadow 23:38:38 32° 227° (SW) 1,203 ? -22.5°
